Location: Betzi
(47.2343°N, 9.5260°E)
Time: 16:26:44
(UTC+00:00)

Resurs 1-4 Rocket - Pass Details

Date: 27 May 2022
Orbit: 800 x 813 km, 98.7° (Epoch: 06 July)

Event Time Altitude Azimuth Distance (km) Brightness Sun altitude
Rises 00:56:28 0° 15° (NNE) 3,323 6.9 -18.1°
Reaches altitude 10° 00:58:49 10° 18° (NNE) 2,389 5.8 -17.9°
Maximum altitude 01:04:06 74° 103° (ESE) 838 2.2 -17.5°
Enters shadow 01:07:02 27° 184° (S) 1,499 3.0 -17.3°
